Change the Weather History Date:

Tuesday, March 25, 2014

  Actual Average Record
Temperature  
Mean Temperature 30 °F 50 °F  
Max Temperature 35 °F 61 °F 84 °F (2007)
Min Temperature 25 °F 40 °F 23 °F (1983)
Degree Days  
Heating Degree Days 35 15  
Month to date heating degree days 553 470  
Since 1 July heating degree days 4154 3770  
Cooling Degree Days 0 0  
Month to date cooling degree days 0 0  
Year to date cooling degree days 0 0  
Moisture  
Dew Point 25 °F    
Average Humidity 70    
Maximum Humidity 92    
Minimum Humidity 47    
Precipitation  
Precipitation 0.19 in 0.14 in 0.65 in (1997)
Month to date precipitation 3.83 3.33  
Year to date precipitation 11.45 10.69  
Snow  
Snow 1.60 in 0.00 in 3.20 in (2013)
Month to date snowfall 9.6 2.5  
Since 1 July snowfall 36.6 22.1  
Snow Depth 1.00 in    
Sea Level Pressure  
Sea Level Pressure 29.99 in    
Wind  
Wind Speed 6 mph (WNW)    
Max Wind Speed 18 mph    
Max Gust Speed 29 mph    
Visibility 3 miles    
Events Fog , Snow    
T = Trace of Precipitation, MM = Missing Value Source: NWS Daily Summary

Daily Weather History Graph

Daily Weather History Graph

Search for Another Location

Airport or City:

Trip Planner

Search our weather history database for the weather conditions in past years. The results will help you decide how hot, cold, wet, or windy it might be!

Date:

Astronomy

Mar. 25, 2014 Rise Set
Actual Time 7:29 AM EDT 7:49 PM EDT
Civil Twilight 7:03 AM EDT 8:15 PM EDT
Nautical Twilight 6:32 AM EDT 8:46 PM EDT
Astronomical Twilight 6:01 AM EDT 9:18 PM EDT
Moon 3:44 AM EDT (3/25) 2:24 PM EDT (3/25)
Length of Visible Light 13h 12m
Length of Day
12h 20m
Waning Crescent, 32% of the Moon is Illuminated
Mar 25
Waning Crescent
Mar 30
New
Apr 7
First Quarter
Apr 15
Full
Apr 22
Last Quarter

Hourly Weather History & Observations

Time (EDT) Temp. Windchill Dew Point Humidity Pressure Visibility Wind Dir Wind Speed Gust Speed Precip Events Conditions
12:53 AM 34.0 °F 29.8 °F 15.1 °F 46% 30.07 in 10.0 mi NNE 4.6 mph - N/A   Partly Cloudy
1:53 AM 33.1 °F 28.7 °F 18.0 °F 54% 30.05 in 10.0 mi NE 4.6 mph - N/A   Overcast
2:53 AM 33.1 °F 28.7 °F 19.0 °F 56% 30.04 in 10.0 mi NNE 4.6 mph - N/A   Overcast
3:53 AM 30.9 °F 26.2 °F 23.0 °F 72% 30.01 in 2.5 mi Variable 4.6 mph - 0.00 in Snow Light Snow
4:25 AM 30.0 °F 26.5 °F 24.1 °F 79% 29.99 in 1.8 mi Variable 3.5 mph - 0.00 in Snow Light Snow
4:41 AM 30.0 °F 26.5 °F 25.0 °F 82% 29.99 in 1.5 mi Variable 3.5 mph - 0.01 in Snow Light Snow
4:53 AM 28.9 °F - 25.0 °F 85% 30.00 in 1.2 mi Calm Calm - 0.01 in Snow Light Snow
5:04 AM 28.9 °F - 26.1 °F 89% 29.98 in 1.0 mi Calm Calm - 0.01 in Snow Light Snow
5:21 AM 28.9 °F - 26.1 °F 89% 29.98 in 1.8 mi Calm Calm - 0.02 in Snow Light Snow
5:29 AM 28.9 °F - 26.1 °F 89% 29.97 in 2.5 mi Calm Calm - 0.02 in Snow Light Snow
5:44 AM 28.9 °F - 26.1 °F 89% 29.97 in 1.5 mi Calm Calm - 0.02 in Snow Light Snow
5:53 AM 28.9 °F - 26.1 °F 89% 29.99 in 1.0 mi Calm Calm - 0.03 in Snow Light Snow
6:19 AM 28.9 °F - 26.1 °F 89% 29.97 in 1.0 mi Calm Calm - 0.00 in Snow Light Snow
6:39 AM 28.9 °F - 26.1 °F 89% 29.97 in 2.0 mi Calm Calm - 0.01 in Snow Light Snow
6:53 AM 28.9 °F - 26.1 °F 89% 29.99 in 2.5 mi Calm Calm - 0.01 in Snow Light Snow
7:18 AM 28.9 °F - 26.1 °F 89% 29.96 in 3.0 mi Calm Calm - 0.00 in Snow Light Snow
7:43 AM 28.9 °F - 26.1 °F 89% 29.96 in 1.8 mi Calm Calm - 0.00 in Snow Light Snow
7:51 AM 28.4 °F - 26.6 °F 93% 29.96 in 1.2 mi Calm Calm - 0.00 in Snow Light Snow
7:53 AM 28.9 °F - 26.1 °F 89% 29.99 in 1.2 mi Calm Calm - 0.00 in Snow Light Snow
8:18 AM 28.9 °F - 26.1 °F 89% 29.95 in 1.2 mi Calm Calm - 0.01 in Snow Light Snow
8:33 AM 28.9 °F - 27.0 °F 92% 29.95 in 1.2 mi Calm Calm - 0.01 in Snow Light Snow
8:37 AM 28.9 °F - 27.0 °F 92% 29.95 in 2.0 mi Calm Calm - 0.01 in Snow Light Snow
8:48 AM 30.2 °F - 26.6 °F 86% 29.95 in 3.0 mi Calm Calm - 0.01 in Snow Light Snow
8:49 AM 30.0 °F - 27.0 °F 88% 29.97 in 3.0 mi Calm Calm - 0.01 in Snow Light Snow
8:51 AM 30.0 °F - 27.0 °F 88% 29.94 in 2.5 mi Calm Calm - 0.00 in Snow Light Snow
8:58 AM 30.0 °F - 27.0 °F 88% 29.94 in 1.5 mi Calm Calm - 0.00 in Snow Light Snow
9:11 AM 30.0 °F - 26.1 °F 85% 29.94 in 1.2 mi Calm Calm - 0.00 in Snow Light Snow
9:15 AM 30.0 °F - 27.0 °F 88% 29.94 in 1.5 mi Calm Calm - 0.00 in Snow Light Snow
9:32 AM 30.0 °F - 27.0 °F 88% 29.94 in 2.0 mi Calm Calm - 0.00 in Snow Light Snow
9:43 AM 30.9 °F - 26.1 °F 82% 29.94 in 4.0 mi Calm Calm - 0.00 in Snow Light Snow
9:53 AM 30.9 °F - 26.1 °F 82% 29.97 in 3.0 mi Calm Calm - 0.00 in Snow Light Snow
9:58 AM 30.0 °F - 26.1 °F 85% 29.94 in 1.8 mi Calm Calm - 0.00 in Snow Light Snow
10:06 AM 30.9 °F - 27.0 °F 85% 29.95 in 1.2 mi Calm Calm - 0.00 in Snow Light Snow
10:47 AM 30.2 °F - 28.4 °F 93% 29.95 in 0.8 mi Calm Calm - 0.01 in Snow Light Snow
10:53 AM 32.0 °F - 28.0 °F 85% 29.98 in 1.2 mi Calm Calm - 0.02 in Snow Light Snow
10:58 AM 32.0 °F - 28.0 °F 85% 29.95 in 2.0 mi Calm Calm - 0.00 in Snow Light Snow
11:10 AM 32.0 °F - 28.0 °F 85% 29.95 in 2.5 mi Calm Calm - 0.00 in Snow Light Snow
11:31 AM 32.0 °F 27.5 °F 28.0 °F 85% 29.96 in 1.5 mi Variable 4.6 mph - 0.00 in Snow Light Snow
11:36 AM 32.0 °F 28.7 °F 28.9 °F 88% 29.96 in 0.8 mi Variable 3.5 mph - 0.00 in Snow Light Snow
11:53 AM 30.9 °F 24.3 °F 27.0 °F 85% 29.99 in 0.2 mi WNW 6.9 mph - 0.02 in Fog , Snow Snow
12:17 PM 30.9 °F 22.8 °F 28.0 °F 89% 29.96 in 0.5 mi NW 9.2 mph - 0.01 in Fog , Snow Snow
12:23 PM 30.9 °F 22.8 °F 27.0 °F 85% 29.96 in 0.8 mi NW 9.2 mph - 0.01 in Snow Light Snow
12:30 PM 30.9 °F 22.8 °F 27.0 °F 85% 29.96 in 0.5 mi NW 9.2 mph - 0.02 in Fog , Snow Snow
12:43 PM 30.9 °F 22.8 °F 28.0 °F 89% 29.96 in 1.5 mi WNW 9.2 mph - 0.02 in Snow Light Snow
12:46 PM 32.0 °F 24.2 °F 28.0 °F 85% 29.96 in 2.0 mi NW 9.2 mph - 0.02 in Snow Light Snow
12:51 PM 32.0 °F 24.8 °F 28.4 °F 87% 29.96 in 3.0 mi WNW 8.1 mph - 0.02 in Snow Light Snow
12:53 PM 32.0 °F 24.8 °F 27.0 °F 82% 29.99 in 3.0 mi WNW 8.1 mph - 0.02 in Snow Light Snow
1:03 PM 32.0 °F 25.6 °F 27.0 °F 82% 29.96 in 1.8 mi WNW 6.9 mph 18.4 mph 0.00 in Snow Light Snow
1:15 PM 33.1 °F 24.4 °F 27.0 °F 78% 29.96 in 3.0 mi WNW 11.5 mph 16.1 mph 0.00 in Snow Light Snow
1:53 PM 34.0 °F 25.5 °F 26.1 °F 73% 29.99 in 5.0 mi WNW 11.5 mph 17.3 mph 0.00 in Snow Light Snow
2:07 PM 34.0 °F 26.6 °F 26.1 °F 73% 29.96 in 9.0 mi WNW 9.2 mph - 0.00 in   Overcast
2:41 PM 33.1 °F 24.9 °F 25.0 °F 72% 29.96 in 1.5 mi West 10.4 mph 17.3 mph 0.00 in Snow Light Snow
2:53 PM 34.0 °F 28.0 °F 28.0 °F 79% 29.99 in 3.0 mi WNW 6.9 mph - 0.00 in Snow Light Snow
2:58 PM 32.0 °F 21.6 °F 26.1 °F 79% 29.96 in 1.5 mi WNW 15.0 mph 19.6 mph 0.00 in Snow Light Snow
3:02 PM 30.9 °F 25.2 °F 26.1 °F 82% 29.96 in 0.8 mi Variable 5.8 mph 23.0 mph 0.00 in Snow Light Snow
3:16 PM 30.9 °F 25.2 °F 26.1 °F 82% 29.96 in 2.0 mi Variable 5.8 mph - 0.01 in Snow Light Snow
3:18 PM 30.9 °F 23.5 °F 26.1 °F 82% 29.96 in 3.0 mi NNW 8.1 mph - 0.01 in Snow Light Snow
3:31 PM 33.1 °F 26.1 °F 28.0 °F 82% 29.96 in 4.0 mi WNW 8.1 mph - 0.01 in Snow Light Snow
3:38 PM 33.1 °F 26.1 °F 27.0 °F 78% 29.96 in 8.0 mi WNW 8.1 mph 18.4 mph 0.01 in   Mostly Cloudy
3:44 PM 32.0 °F 20.8 °F 26.1 °F 79% 29.96 in 1.0 mi WNW 17.3 mph 25.3 mph 0.01 in Snow Light Snow
3:51 PM 30.2 °F 21.9 °F 26.6 °F 86% 29.96 in 0.5 mi WNW 9.2 mph 25.3 mph 0.02 in Fog , Snow Light Snow
3:53 PM 30.0 °F 22.4 °F 26.1 °F 85% 30.00 in 0.5 mi West 8.1 mph 21.9 mph 0.02 in Fog , Snow Light Snow
3:56 PM 30.9 °F 22.8 °F 26.1 °F 82% 29.96 in 1.0 mi WNW 9.2 mph 18.4 mph 0.00 in Snow Light Snow
3:59 PM 33.1 °F 24.9 °F 27.0 °F 78% 29.96 in 3.0 mi WNW 10.4 mph 18.4 mph 0.00 in Snow Light Snow
4:53 PM 34.0 °F 26.0 °F 23.0 °F 64% 30.00 in 8.0 mi WNW 10.4 mph 20.7 mph 0.00 in   Mostly Cloudy
5:02 PM 33.1 °F 25.5 °F 25.0 °F 72% 29.98 in 2.5 mi West 9.2 mph 23.0 mph 0.00 in Snow Light Snow
5:12 PM 32.0 °F 23.6 °F 26.1 °F 79% 29.98 in 3.0 mi West 10.4 mph 16.1 mph 0.00 in Snow Light Snow
5:15 PM 30.9 °F 22.2 °F 26.1 °F 82% 29.98 in 1.5 mi West 10.4 mph 17.3 mph 0.00 in Snow Light Snow
5:25 PM 32.0 °F 27.5 °F 27.0 °F 82% 29.98 in 1.8 mi Variable 4.6 mph - 0.00 in Snow Light Snow
5:28 PM 30.9 °F 25.2 °F 27.0 °F 85% 29.98 in 3.0 mi Variable 5.8 mph - 0.00 in Snow Light Snow
5:32 PM 30.9 °F 21.2 °F 27.0 °F 85% 29.99 in 0.8 mi West 12.7 mph 19.6 mph 0.00 in Snow Light Snow
5:44 PM 28.9 °F 19.2 °F 26.1 °F 89% 30.00 in 0.2 mi WNW 11.5 mph 24.2 mph 0.02 in Fog , Snow Heavy Snow
5:50 PM 28.4 °F 18.0 °F 26.6 °F 93% 30.00 in 0.2 mi West 12.7 mph 20.7 mph 0.05 in Fog , Snow Snow
5:51 PM 28.9 °F 19.2 °F 27.0 °F 92% 30.04 in 0.2 mi West 11.5 mph 20.7 mph 0.05 in Fog , Snow Snow
5:59 PM 28.9 °F 18.6 °F 25.0 °F 85% 30.01 in 1.0 mi WNW 12.7 mph 28.8 mph 0.00 in Snow Light Snow
6:05 PM 28.9 °F 18.6 °F 24.1 °F 82% 30.01 in 1.2 mi NW 12.7 mph 21.9 mph 0.00 in Snow Light Snow
6:14 PM 28.0 °F 16.5 °F 24.1 °F 85% 30.02 in 2.0 mi WNW 15.0 mph 25.3 mph 0.00 in Snow Light Snow
6:46 PM 28.0 °F 18.6 °F 23.0 °F 81% 30.04 in 7.0 mi West 10.4 mph 19.6 mph 0.00 in   Overcast
6:49 PM 28.4 °F 18.5 °F 23.0 °F 80% 30.04 in 8.0 mi WNW 11.5 mph 19.6 mph 0.00 in   Overcast
6:53 PM 28.0 °F 19.3 °F 23.0 °F 81% 30.08 in 9.0 mi NW 9.2 mph 18.4 mph 0.00 in   Overcast
7:18 PM 28.9 °F 19.2 °F 21.9 °F 75% 30.05 in 10.0 mi WNW 11.5 mph 21.9 mph N/A   Overcast
7:29 PM 28.0 °F 20.0 °F 21.9 °F 78% 30.06 in 1.8 mi WNW 8.1 mph 20.7 mph 0.00 in Snow Light Snow
7:36 PM 28.0 °F 20.8 °F 21.9 °F 78% 30.06 in 1.0 mi WNW 6.9 mph - 0.00 in Snow Light Snow
7:48 PM 28.4 °F 22.2 °F 23.0 °F 80% 30.07 in 2.0 mi WNW 5.8 mph 18.4 mph 0.00 in Snow Light Snow
7:53 PM 28.0 °F 19.3 °F 23.0 °F 81% 30.10 in 7.0 mi WNW 9.2 mph 18.4 mph 0.00 in   Overcast
8:53 PM 28.0 °F 20.0 °F 19.9 °F 72% 30.12 in 10.0 mi WNW 8.1 mph - N/A   Partly Cloudy
9:53 PM 27.0 °F 21.6 °F 16.0 °F 63% 30.15 in 10.0 mi West 4.6 mph - N/A   Partly Cloudy
10:53 PM 27.0 °F 18.7 °F 15.1 °F 61% 30.17 in 10.0 mi West 8.1 mph - N/A   Mostly Cloudy
11:53 PM 26.1 °F 18.4 °F 15.1 °F 63% 30.19 in 10.0 mi WNW 6.9 mph - N/A   Mostly Cloudy